Location: Erlenbrunn
(49.1717°N, 7.6142°E)
Time: 05:48:06
(UTC+00:00)

USA 215 - Pass Details

Date: 25 November 2020
Orbit: 1099 x 1109 km, 123.0° (Epoch: 22 January)

Event Time Altitude Azimuth Distance (km) Brightness Sun altitude
Exits shadow 17:50:56 35° 64° (ENE) 1,716 3.8 -21.2°
Maximum altitude 17:54:00 77° 144° (SE) 1,134 3.2 -21.7°
Drops below altitude 10° 18:00:32 10° 230° (SW) 2,952 6.3 -22.7°
Sets 18:03:01 0° 232° (SW) 3,907 7.1 -23.1°
